Home   Weather   Marseille   Past weeks

Flag for France Past Weather in Marseille, Provence-Alpes-Côte d'Azur, France — Yesterday and Last 2 Weeks

Now
61 °F

Sunny.


Feels Like: 61 °F
Forecast: 51 / 61 °F
Wind: 21 mph from Southeast

Location: Marseille / Marignane

Current Time: Apr 30, 2017 at 5:04:52 pm

Latest Report: Apr 30, 2017 at 4:30 pm


Visibility: 10 mi

Pressure: 29.89 "Hg

Humidity: 59%

Dew Point: 46 °F

Location of MarseilleLocation

Past Weather in Marseille — Graph

°F

Marseille Temperature Yesterday

Maximum temperature yesterday: 66 °F (at 3:30 pm)
Minimum temperature yesterday: 37 °F (at 6:30 am)
Average temperature yesterday: 53 °F

High & Low Weather Summary for the Past Weeks

 TemperatureHumidityPressure
High73 °F (Apr 15, 4:00 pm)100% (Apr 23, 1:00 am)30.36 "Hg (Apr 23, 1:00 am)
Low37 °F (Apr 21, 6:00 am)20% (Apr 18, 3:30 pm)29.65 "Hg (Apr 26, 3:30 am)
Average57 °F51%30.03 "Hg
* Reported Apr 15 4:00 pm — Apr 30 4:00 pm, Marseille, Weather by CustomWeather, © 2017

Note: Actual official high and low records may vary slightly from our data, if they occured in-between our weather recording intervals... More about our weather records

Advertising

Marseille Weather History for the Previous 24 Hours

Scroll right to see more
 ConditionsComfort  
Time TempWeatherWind HumidityBarometerVisibility
4:00 pm
Sun, Apr 30
61 °FSunny.22 mph55%29.89 "Hg10 mi
3:30 pm61 °FOvercast.21 mph55%29.89 "HgN/A
3:00 pm61 °FSunny.21 mph55%29.89 "Hg10 mi
2:30 pm61 °FSunny.22 mph55%29.89 "Hg10 mi
2:00 pm61 °FSunny.23 mph55%29.92 "Hg10 mi
1:30 pm59 °FSunny.21 mph59%29.92 "Hg10 mi
1:00 pm61 °FSunny.22 mph55%29.92 "Hg10 mi
12:30 pm61 °FMostly cloudy.22 mph55%29.92 "HgN/A
12:00 pm59 °FSunny.17 mph59%29.95 "Hg10 mi
11:30 am59 °FOvercast.21 mph55%29.92 "HgN/A
11:00 am59 °FOvercast.18 mph59%29.95 "HgN/A
10:30 am59 °FOvercast.17 mph59%29.95 "HgN/A
10:00 am57 °FMore clouds than sun.13 mph67%29.95 "HgN/A
9:30 am57 °FOvercast.12 mph67%29.95 "HgN/A
9:00 am55 °FSunny.10 mph67%29.95 "Hg10 mi
8:30 am55 °FSunny.8 mph67%29.95 "Hg10 mi
8:00 am55 °FSunny.6 mph67%29.95 "Hg10 mi
7:30 am54 °FSunny.1 mph72%29.95 "Hg10 mi
7:00 am54 °FSunny.8 mph72%29.95 "Hg10 mi
6:30 am54 °FClear.9 mph67%29.95 "Hg10 mi
6:00 am54 °FClear.9 mph72%29.95 "Hg10 mi
5:30 am54 °FClear.8 mph67%29.95 "Hg10 mi
5:00 am52 °FClear.8 mph72%29.95 "Hg10 mi
4:30 am52 °FClear.7 mph72%29.95 "Hg10 mi
4:00 am48 °FClear.6 mph76%29.95 "Hg10 mi
3:30 am52 °FClear.7 mph72%29.95 "Hg10 mi
3:00 am54 °FPassing clouds.7 mph67%29.95 "HgN/A
2:30 am52 °FPassing clouds.8 mph72%29.98 "HgN/A
2:00 am48 °FPartly cloudy.7 mph76%29.98 "HgN/A
1:30 am50 °FPassing clouds.6 mph76%29.98 "HgN/A
1:00 am50 °FClear.5 mph71%29.98 "Hg10 mi
12:30 am52 °FClear.8 mph72%29.98 "Hg10 mi
12:00 am54 °FClear.7 mph67%29.98 "Hg10 mi
11:30 pm
Sat, Apr 29
54 °FClear.6 mph67%29.98 "Hg10 mi
11:00 pm54 °FClear.5 mph72%29.98 "Hg10 mi
10:30 pm55 °FClear.8 mph72%29.95 "Hg10 mi
9:30 pm55 °FClear.5 mph67%29.95 "Hg10 mi
9:00 pm57 °FPassing clouds.7 mph63%29.95 "HgN/A
8:30 pm57 °FSunny.13 mph63%29.95 "Hg10 mi
8:00 pm59 °FPassing clouds.12 mph59%29.95 "HgN/A
7:30 pm61 °FSunny.13 mph55%29.95 "Hg10 mi
7:00 pm61 °FSunny.14 mph55%29.95 "Hg10 mi
6:30 pm63 °FPassing clouds.14 mph52%29.95 "HgN/A
6:00 pm63 °FSunny.17 mph37%29.95 "Hg10 mi
5:30 pm64 °FSunny.18 mph28%29.95 "Hg10 mi
5:00 pm64 °FPassing clouds.17 mph40%29.95 "HgN/A
Weather by CustomWeather, © 2017

See weather overviewHow to use our weather pages